This demonstration page uses our WeatherBlox Daily Observations layout. Learn more.

Left ArrowRight Arrow

44.8408, -93.29828

Hourly Observations for September 20, 2019

Temp ( °F °C ) Dew Point ( °F °C ) Humidity (%) Winds ( mph kmh ) Pressure ( in mb ) Visibility ( mi km ) Precip ( " mm )
12:53 am 00:53 Mostly Clear 70 21.1 67 19.4 90 90 Calm 30.03 1017 7 11 0.00 0.00
1:53 am 01:53 Mostly Clear 70 21.1 67 19.4 90 90 SE 6 9 30.03 1017 9 14 0.00 0.00
2:53 am 02:53 Partly Cloudy 68 20 66 18.9 93 93 SE 6 9 30.04 1017 10 16 0.00 0.00
3:53 am 03:53 Mostly Clear 68 20 66 18.9 93 93 SE 6 9 30.03 1017 9 14 0.00 0.00
4:53 am 04:53 Partly Cloudy 67 19.4 65 18.3 93 93 ESE 6 9 30.03 1017 9 14 0.00 0.00
5:53 am 05:53 Mostly Clear with Mist and Fog 67 19.4 65 18.3 93 93 ESE 3 6 30.03 1017 5 8 0.00 0.00
6:23 am 06:23 Mostly Clear with Mist and Fog 67 19.4 65 18.3 93 93 ESE 9 15 30.02 1017 5 8 0.00 0.00
6:53 am 06:53 Mostly Cloudy with Mist and Fog 67 19.4 65 18.3 93 93 ESE 7 11 30.04 1017 4 6 0.00 0.00
7:53 am 07:53 Partly Cloudy with Mist and Fog 68 20 65 18.3 90 90 ESE 8 13 30.04 1017 3 5 0.00 0.00
8:06 am 08:06 Mostly Cloudy with Mist and Fog 68 20 66 18.9 93 93 SE 8 13 30.04 1017 4 6 0.00 0.00
8:13 am 08:13 Mostly Cloudy with Mist and Fog 68 20 66 18.9 93 93 SE 12 19 30.04 1017 4 6 0.00 0.00
8:41 am 08:41 Partly Cloudy with Mist and Fog 69 20.6 66 18.9 90 90 SE 7 11 30.04 1017 5 8 0.00 0.00
8:53 am 08:53 Partly Cloudy with Mist and Fog 69 20.6 66 18.9 90 90 SE 7 11 30.04 1017 6 10 0.00 0.00
9:21 am 09:21 Mostly Cloudy 71 21.7 66 18.9 84 84 ESE 10 17 30.02 1017 8 13 0.00 0.00
9:53 am 09:53 Mostly Cloudy 71 21.7 67 19.4 87 87 SE 12 19 30.03 1017 8 13 0.00 0.00
10:44 am 10:44 Mostly Cloudy 75 23.9 68 20 79 79 SE 12 19 30.00 1016 10 16 0.00 0.00
10:53 am 10:53 Mostly Cloudy 75 23.9 68 20 79 79 SE 14 22 30.01 1016 10 16 0.00 0.00
11:53 am 11:53 Mostly Cloudy 78 25.6 69 20.6 74 74 SSE 10 17 30.00 1016 10 16 0.00 0.00
12:53 pm 12:53 Mostly Cloudy 82 27.8 68 20 63 63 SE 12 19 29.98 1015 10 16 0.00 0.00
1:53 pm 13:53 Mostly Cloudy 84 28.9 69 20.6 61 61 SE 15 24 29.96 1014 10 16 0.00 0.00
2:53 pm 14:53 Mostly Cloudy 84 28.9 70 21.1 63 63 SE 13 20 29.95 1014 10 16 0.00 0.00
3:53 pm 15:53 Mostly Cloudy 84 28.9 72 22.2 67 67 SE 9 15 29.95 1014 10 16 0.00 0.00
4:53 pm 16:53 Mostly Cloudy 84 28.9 72 22.2 67 67 ESE 14 22 29.94 1014 10 16 0.00 0.00
5:53 pm 17:53 Partly Cloudy 83 28.3 72 22.2 70 70 ESE 14 22 29.93 1014 10 16 0.00 0.00
6:53 pm 18:53 Partly Cloudy 81 27.2 72 22.2 74 74 ESE 13 20 29.93 1014 9 14 0.00 0.00
7:53 pm 19:53 Mostly Clear 80 26.7 71 21.7 74 74 SE 10 17 29.92 1013 10 16 0.00 0.00
8:53 pm 20:53 Partly Cloudy 79 26.1 70 21.1 74 74 SE 14 22 29.91 1013 10 16 0.00 0.00
9:53 pm 21:53 Partly Cloudy 77 25 69 20.6 77 77 SE 12 19 29.91 1013 10 16 0.00 0.00
10:53 pm 22:53 Mostly Clear 76 24.4 68 20 77 77 SSE 12 19 29.91 1013 10 16 0.00 0.00
11:53 pm 23:53 Mostly Clear 75 23.9 67 19.4 76 76 SSE 10 17 29.89 1012 10 16 0.00 0.00

Powered by AerisWeather